Regional Weather Roundup
Issued by NWS

Home | Current Version | Previous Version | Text Only | Print | Product List | Glossary On
Versions: 1 2 3 4 5 6 7 8 9 10 11 12 13 14 15 16 17 18 19 20 21 22 23 24 25 26 27
000
ASUS45 KPSR 061710
RWRAZ

ARIZONA HOURLY REGIONAL WEATHER ROUNDUP
NATIONAL WEATHER SERVICE PHOENIX AZ
1000 AM MST FRI MAY 06 2016

NOTE: FAIR INDICATES FEW OR NO CLOUDS BELOW 12,000 FEET WITH NO
SIGNIFICANT WEATHER AND/OR OBSTRUCTIONS TO VISIBILITY.

AZZ001>003-036-061800-
NORTHWEST ARIZONA

CITY           SKY/WX    TMP DP  RH WIND       PRES   REMARKS
BULLHEAD CITY  SUNNY     73  39  29 S18G24    29.80S
KINGMAN        CLOUDY    60  40  47 S21       29.84R
$$

AZZ004>008-015-016-018-061800-
NORTH CENTRAL ARIZONA

CITY           SKY/WX    TMP DP  RH WIND       PRES   REMARKS
GRAND CANYON   MOSUNNY   57  23  26 S17G32    29.93S
WILLIAMS       SUNNY     54  25  32 S23G32    30.00S
PRESCOTT       PTSUNNY   59  33  37 SE24G35   29.90S
FLAGSTAFF      MOSUNNY   51  29  42 SW22G33   29.96R
PAYSON         PTSUNNY   57  36  44 S10       29.96F
PAGE           PTSUNNY   69  22  16 S26G39    29.83R
$$

AZZ009>014-017-061800-
NORTHEAST ARIZONA

CITY           SKY/WX    TMP DP  RH WIND       PRES   REMARKS
WINSLOW        PTSUNNY   63  35  35 S20G28    29.93F
SAINT JOHNS    SUNNY     72  19  13 SW24G36   29.91S
WINDOW ROCK      N/A     64  27  24 MISG      29.99F
SHOW LOW       MOSUNNY   59  30  33 SW23G31   29.99S
$$

AZZ023-061800-
GREATER PHOENIX AREA

CITY           SKY/WX    TMP DP  RH WIND       PRES   REMARKS
PHOENIX        MOSUNNY   71  43  36 S17G24    29.85S
BUCKEYE        MOSUNNY   70  46  43 S8        29.87S
GLENDALE       MOSUNNY   72  45  37 SE9       29.87S
LUKE AFB       SUNNY     72  46  40 VRB6      29.84S
DEER VALLEY    SUNNY     73  36  25 S18       29.85F
SCOTTSDALE     SUNNY     71  39  31 S13G24    29.88R
MESA-FALCON    MOSUNNY  N/A N/A N/A S12G17    29.86R
MESA-GATEWAY   MOSUNNY   70  43  37 SW8       29.89R
CHANDLER       MOSUNNY   70  41  35 S21G29    29.88R
$$

AZZ027-028-061800-
SOUTHWEST MARICOPA COUNTY AND PINAL COUNTY

CITY           SKY/WX    TMP DP  RH WIND       PRES   REMARKS
CASA GRANDE    SUNNY     72  39  30 SW20G26   29.89S
GILA BEND      MOSUNNY   72  46  39 SE12      29.85S
$$

AZZ503-504-507>509-061800-
SOUTHEAST ARIZONA

CITY           SKY/WX    TMP DP  RH WIND       PRES   REMARKS
TUCSON         SUNNY     74  37  26 S17G26    29.92S
DAVIS-MONTHAN  SUNNY     72  41  32 S13G24    29.91R
RYAN FIELD     SUNNY     73  34  23 SW17G25   29.91S
NOGALES        MOSUNNY   69  40  34 S18G28    29.96S
SIERRA VISTA   SUNNY     69  33  26 S29       29.97R
DOUGLAS        SUNNY     74  33  22 S24G37    29.96R
SAFFORD        SUNNY     78  32  18 S14G23    29.87S
$$

AZZ020-021-025-026-031-061800-
SOUTHWEST ARIZONA

CITY           SKY/WX    TMP DP  RH WIND       PRES   REMARKS
YUMA           MOSUNNY   71  43  36 VRB6      29.85R
$$

CAZ031-033-041-043-047-048-061-061800-
SOUTHERN CALIFORNIA

CITY           SKY/WX    TMP DP  RH WIND       PRES   REMARKS
DOWNTOWN L.A.  CLOUDY    64  53  67 CALM      29.88R
L.A. AIRPORT   PTSUNNY   61  52  72 SW8       29.89R
SAN DIEGO      LGT RAIN  59  53  80 SE8       29.93S
BURBANK        CLOUDY    61  47  59 SE6       29.87S
ONTARIO        LGT RAIN  60  48  64 W7        29.88R
RIVERSIDE      PTSUNNY   61  49  64 VRB3      29.88S
PALM SPRINGS   PTSUNNY   71  43  36 N7        29.83R
EL CENTRO NAS  PTSUNNY   72  41  32 W17       29.85R
IMPERIAL       PTSUNNY   71  44  37 W13       29.83R
BLYTHE         SUNNY     74  43  32 S17       29.81S
NEEDLES        MOSUNNY   74  41  30 S15       29.79S
$$

NVZ020-UTZ003-061800-
SOUTHERN NEVADA-UTAH

CITY           SKY/WX    TMP DP  RH WIND       PRES   REMARKS
LAS VEGAS      PTSUNNY   63  41  44 CALM      29.77R
SALT LAKE CITY PTSUNNY   72  41  32 E20       29.79F
$$

NMZ009-TXZ055-061800-
NEW MEXICO-WEST TEXAS

CITY           SKY/WX    TMP DP  RH WIND       PRES   REMARKS
ALBUQUERQUE    SUNNY     78  20  11 S29       29.99F
EL PASO        SUNNY     83  26  12 S9G16     29.94F
$$


........................KEY........................
SKY/WX - SKY CONDITION/WEATHER
TMP    - TEMPERATURE IN FAHRENHEIT
DP     - DEW POINT IN FAHRENHEIT
RH     - RELATIVE HUMIDITY IN PERCENT
WIND   - DIRECTION AND SPEED IN MILES PER HOUR (MPH)
VRB    - VARIABLE WIND DIRECTION
PRES   - MEAN SEA LEVEL PRESSURE IN INCHES OF MERCURY
         F - FALLING PRESSURE   R - RISING PRESSURE
         S - STEADY PRESSURE
VSB    - VISIBILITY IN MILES
HX     - HEAT INDEX IN FAHRENHEIT
WCI    - WIND CHILL INDEX IN FAHRENHEIT
TC     - TEMPERATURE IN CELSIUS WHICH IS ALSO KNOWN AS
         TEMPERATURE IN CENTIGRADE
AFB    - AIR FORCE BASE
         LUKE AFB IS LUKE AIR FORCE BASE
         DAVIS-MONTHAN IS DAVIS-MONTHAN AIR FORCE BASE
NAS    - NAVAL AIR STATION
         EL CENTRO NAS IS EL CENTRO NAVAL AIR STATION
N/A    - NOT AVAILABLE





USA.gov is the U.S. government's official web portal to all federal, state and local government web resources and services.